Regional Weather Roundup
Issued by NWS

Home | Current Version | Previous Version | Graphics & Text | Print | Product List | Glossary On
Versions: 1 2 3 4 5 6 7 8 9 10 11 12 13 14 15 16 17 18 19 20 21 22 23 24 25 26 27 28 29 30 31 32 33 34 35 36 37 38 39 40 41 42 43 44 45 46 47 48 49 50
000
ASUS45 KSLC 201710
RWRUT

UTAH REGIONAL WEATHER ROUNDUP
NATIONAL WEATHER SERVICE SALT LAKE CITY UT
1000 AM MST THU NOV 20 2014

UTZ001>011-023>025-201800-

NORTHERN UTAH

CITY           SKY/WX    TMP DP  RH WIND       PRES   REMARKS
BRIGHAM CITY   CLOUDY    32  24  72 CALM      30.15S
DUGWAY         PTSUNNY   35  19  51 N3        30.16R
HILL AFB       CLOUDY    37  22  54 E2        30.13R
LOGAN          SUNNY     29  24  82 CALM      30.14R
OGDEN          CLOUDY    37  24  59 CALM      30.13R
PROVO AIRPORT  CLOUDY    36  21  55 CALM      30.13F
SALT LAKE CITY CLOUDY    37  27  67 NW3       30.14R
VERNAL         MOSUNNY   36  13  38 S3        30.13R
WENDOVER       CLOUDY    30  19  64 E3        30.15R
HEBER CITY     CLOUDY    32  23  69 CALM      30.12S

$$

UTZ012>022-026-027-201800-

SOUTHERN/CENTRAL UTAH

CITY           SKY/WX    TMP DP  RH WIND       PRES   REMARKS
BLANDING       CLOUDY    37  17  45 CALM      30.23R
BRYCE CANYON   MOSUNNY   40  14  34 CALM      30.14S
CEDAR CITY     SUNNY     46  13  26 W5        30.12S
DELTA          MOSUNNY   35  21  58 CALM      30.13R
MILFORD        SUNNY     46  13  26 S10       30.11R
MOAB/CYNLANDS  CLOUDY    35  12  38 CALM      30.16R
PRICE          CLOUDY    35  14  42 CALM      30.14S
ST GEORGE      CLOUDY    43  12  28 N3        30.16S
KANAB          SUNNY     43   9  24 CALM      30.18S

$$

REGIONAL REPORTS     COLORADO/ARIZONA

CITY           SKY/WX    TMP DP  RH WIND       PRES   REMARKS
CRAIG, CO      MOSUNNY   32  16  51 VRB5      30.13S WCI  27
GRAND JUNCTION MOSUNNY   35  15  44 SE7       30.16S WCI  29
RIFLE          PTSUNNY   29  19  66 VRB3      30.17F
MONTROSE       MOSUNNY   34  15  46 CALM      30.17F
CORTEZ         PTSUNNY   33  21  61 CALM      30.16S
PAGE, AZ       NOT AVBL
GRAND CANYON   SUNNY     46   2  16 SW6       30.17F
KINGMAN        SUNNY     55   8  15 CALM      30.12R
FLAGSTAFF      SUNNY     47   5  18 SW12      30.17F

$$

REGIONAL REPORTS    NEVADA/IDAHO/WYOMING

CITY           SKY/WX    TMP DP  RH WIND       PRES   REMARKS
LAS VEGAS, NV    N/A     53  15  22 S5        30.09R
ELY            SUNNY     41  12  30 S9        30.13S
ELKO           CLOUDY    36  29  75 CALM      30.12S
POCATELLO, ID  MOSUNNY   27  23  85 CALM      30.13S
BURLEY         CLOUDY    31  26  82 CALM      30.10F
EVANSTON, WY   CLOUDY    36  15  42 S5        30.10S WCI  32
ROCK SPRINGS   PTSUNNY   36  13  38 W12       30.07R WCI  28
KEMMERER       PTSUNNY   34  14  44 W8        30.10R WCI  27

$$



USA.gov is the U.S. government's official web portal to all federal, state and local government web resources and services.